Regional Weather Roundup
Issued by NWS Cleveland, OH

Home | Current Version | Previous Version | Graphics & Text | Print | Product List | Glossary On
Versions: 1 2 3 4 5 6 7 8 9 10 11 12 13 14 15 16 17 18 19 20 21 22 23 24 25 26 27 28 29 30 31 32 33 34 35 36 37 38 39 40 41 42 43 44 45 46 47 48 49 50
000
ASUS41 KCLE 241810
RWRCLE
OHIO REGIONAL WEATHER ROUNDUP
NATIONAL WEATHER SERVICE WILMINGTON, OH
100 PM EST TUE JAN 24 2017

NOTE: "FAIR" INDICATES FEW OR NO CLOUDS BELOW 12,000 FEET WITH NO
SIGNIFICANT WEATHER AND/OR OBSTRUCTIONS TO VISIBILITY.

OHZ001>008-015>018-024>027-034-035-043-044-241900-
   NORTHWEST OHIO

CITY           SKY/WX    TMP DP  RH WIND       PRES   REMARKS
DEFIANCE       CLOUDY    40  35  83 NW14      29.80F
FINDLAY        CLOUDY    42  37  82 NW13      29.77F
TOLEDO EXPRESS CLOUDY    41  39  93 NW12      29.77F
TOLEDO EXEC    CLOUDY    43  40  89 NW15      29.77F
LIMA           CLOUDY    40  39  97 W12       29.80F
$$

OHZ009>014-019>023-028>033-038-089-241900-
   NORTHEAST OHIO

CITY           SKY/WX    TMP DP  RH WIND       PRES   REMARKS
CLE-HOPKINS    CLOUDY    38  34  85 W9        29.75F FOG
CLE-LAKEFRONT  CLOUDY    36  34  92 W7        29.73F FOG
CUY CO. ARPT   CLOUDY    37  34  87 W16       29.73F FOG
LORAIN-ELYRIA  CLOUDY    37  34  89 NW9       29.75F FOG
ASHTABULA      CLOUDY    35  32  88 NW7       29.71F WCI  29
AKRON-CANTON   CLOUDY    38  34  85 NW10      29.71F
WOOSTER        CLOUDY    38  36  92 NW13      29.73F
MANSFIELD      CLOUDY    38  38 100 W8G20     29.74F
YOUNGSTOWN     LGT RAIN  35  33  92 NW9       29.69F FOG     WCI  28
$$

OHZ042-051>053-060>062-070>072-077>081-241900-
  SOUTHWEST OHIO

CITY           SKY/WX    TMP DP  RH WIND       PRES   REMARKS
CINC-COVINGTON CLOUDY    43  37  79 W13       29.85F
CINC-LUNKEN    CLOUDY    45  39  79 W7        29.86F
HAMILTON       CLOUDY    45  39  79 W8        29.86F
DAYTON         CLOUDY    41  37  86 NW14      29.82F
WRIGHT-PAT AFB CLOUDY    42  40  95 NW10      29.81F
DAYTON GENERAL CLOUDY    42  37  82 NW8       29.82F
WILMINGTON     CLOUDY    40  39  97 NW13      29.81F FOG
$$

OHZ036-037-039>041-045>050-054>059-063>069-073>076-082>088-241900-
  CENTRAL AND SOUTHEAST OHIO

CITY           SKY/WX    TMP DP  RH WIND       PRES   REMARKS
COLUMBUS       LGT RAIN  43  40  89 NW10      29.77F FOG
OSU AIRPORT    CLOUDY    42  41  96 NW14G21   29.77F
BOLTON FIELD   CLOUDY    43  39  87 NW9       29.79F
RICKENBACK AFB NOT AVBL
NEWARK         CLOUDY    43  38  82 NW13G22   29.76F
MARION         CLOUDY    41  39  93 NW13      29.77F FOG
LANCASTER      CLOUDY    44  40  85 NW10      29.78F
ZANESVILLE     CLOUDY    43  38  82 W10       29.75F
NEW PHILLY     CLOUDY    40  38  93 W9        29.74F
$$




USA.gov is the U.S. government's official web portal to all federal, state and local government web resources and services.